Notices

What's New in latest Release from April 7th, 2021:

- Updated Glossary, including Speed of Maximum Gust, and Total Hourly Precipitation

- Updated national and regional climate services offices contacts and prices information

- Addition of station inventory lists for 1981-2010, 1971-2000, and 1961-1990 Normals.

If you haven't already, please take our survey and provide feedback about our website: https://eccc.sondage-survey.ca/f/LanguageSelection.aspx?s=442ca660-fcf1-47c0-95a9-59707d6fd709

Hourly Data Report for July 16, 2018

OTTAWA INTL A
ONTARIO
Current Station Operator: NAVCAN

45°19'00.000" N
75°40'00.000" W
114.90 m
6106001
71628
YOW

Download Data

Hourly Data (July 2018)
Hourly Data Report for July 16, 2018
TIME
LST
Temp Definition
°C
Dew Point Definition
°C
Rel Hum Definition
%
Precip. Amount Definition
mm

Wind Dir Definition
10's deg

Wind Spd Definition
km/h
Visibility Definition
km
Stn Press Definition
kPa
Hmdx Definition


Wind Chill Definition


Weather Definition


00:00 19.7 13.1 66   12 7 24.1 100.10     LegendNANA
01:00 21.9 14.7 63   9 5 24.1 100.11 26   Mainly Clear
02:00 19.3 14.7 74   12 9 24.1 100.07     LegendNANA
03:00 20.1 15.9 76   10 6 24.1 100.07 25   LegendNANA
04:00 18.5 15.2 81   8 4 24.1 100.07     Mostly Cloudy
05:00 19.2 16.3 83   11 5 24.1 100.07     LegendNANA
06:00 20.0 17.3 84   11 4 24.1 100.08 25   LegendNANA
07:00 22.1 18.7 80   15 7 24.1 100.08 29   Mostly Cloudy
08:00 25.3 19.2 68   19 7 24.1 100.06 32   LegendNANA
09:00 28.0 18.7 56   19 16 24.1 100.04 35   LegendNANA
10:00 29.6 19.1 53   17 14 24.1 99.99 36   Mostly Cloudy
11:00 31.0 19.4 49   16 13 24.1 99.94 38   LegendNANA
12:00 32.0 17.1 40   19 12 24.1 99.87 37   LegendNANA
13:00 33.5 17.9 39   22 17 24.1 99.79 39   Mostly Cloudy
14:00 32.6 18.6 43   18 18 24.1 99.72 39   LegendNANA
15:00 32.5 18.2 42   20 20 24.1 99.68 39   LegendNANA
16:00 30.6 18.7 48   20 18 24.1 99.65 37   Mostly Cloudy
17:00 27.3 19.9 63   25 13 24.1 99.62 35   LegendNANA
18:00 27.0 18.6 59   24 9 24.1 99.60 33   LegendNANA
19:00 26.8 18.4 60   29 10 24.1 99.62 33   Mostly Cloudy
20:00 25.1 19.1 69   23 4 24.1 99.53 32   LegendNANA
21:00 24.7 19.1 71   26 5 24.1 99.53 32   LegendNANA
22:00 23.2 19.3 78   17 4 24.1 99.53 30   Mostly Cloudy
23:00 23.8 19.8 78   19 8 24.1 99.50 31   LegendNANA

Notes on Data Quality.

Legend

  • E = Estimated
  • M = Missing
  • NA = Not Available*
  • [empty] = Indicates an unobserved value
Date modified: